Theta_e
306 307 306 305 305 305 305 304 304 305 305 308 307 306 305 304 304 304 304 303 302 304 305 304 302 299 298 297 296 296 296 295 295 294 294 293 293 293 292 292 292 292 292 292 292 291 291 291 291 291 291 291 290 290 291 291 291 291 290 290 290 290 290 290 290 291 291 291 292 292 292 292 292 292 293 293 294 294 293 293 293 292 292 292 292 292
307 305 305 304 304 303 303 302 303 305 306 308 307 304 304 303 302 303 304 302 301 303 304 304 302 299 297 296 295 295 295 294 294 293 293 293 292 292 292 292 292 291 292 292 292 291 291 291 291 291 291 290 290 290 290 290 291 291 290 290 289 289 290 290 290 290 290 291 291 291 291 291 291 291 292 292 292 292 292 293 293 293 293 292 292 291
306 305 306 303 301 302 301 301 303 305 306 307 305 303 303 303 303 303 304 302 301 303 304 304 303 300 296 296 295 294 294 293 293 293 292 292 292 292 292 292 291 291 291 291 291 291 291 290 290 290 290 290 290 290 290 290 290 290 290 290 289 289 289 289 289 289 289 290 290 291 291 291 291 291 291 291 291 292 292 292 292 293 293 293 292 292
304 305 304 300 299 303 303 302 303 305 306 305 303 302 303 303 302 303 304 303 302 302 302 303 303 299 296 296 295 294 294 293 293 293 292 292 292 292 292 291 291 291 291 290 290 291 290 290 290 289 289 289 289 289 289 289 290 290 290 290 289 288 288 289 289 288 288 288 289 290 291 291 292 292 292 292 292 292 292 292 292 292 292 292 292 292
306 304 301 299 300 302 303 304 305 306 305 304 302 301 302 302 301 302 303 303 303 302 300 302 304 301 298 298 296 295 294 294 293 293 293 292 292 292 292 291 291 291 291 290 290 290 290 290 289 289 288 288 289 289 289 289 289 290 290 289 288 288 288 288 288 287 287 287 288 289 290 290 291 291 291 292 292 292 292 292 292 292 292 292 291 291
306 302 300 302 301 301 303 304 303 304 304 303 301 300 300 301 301 301 302 302 303 303 301 302 303 302 300 298 297 296 295 294 293 293 293 292 292 292 291 291 291 291 291 290 290 290 290 289 289 288 288 287 288 288 289 289 289 289 289 288 287 287 287 287 287 287 286 287 287 287 288 289 290 290 291 291 291 291 291 291 291 291 291 292 292 291
305 301 301 304 302 302 304 303 302 302 305 302 300 299 300 300 301 301 301 302 301 300 301 301 301 301 300 299 297 296 295 294 294 293 293 292 292 292 291 291 291 290 290 290 290 290 289 289 288 288 287 287 287 287 288 289 289 289 289 288 287 287 287 287 287 287 286 286 286 286 287 288 289 290 290 290 290 290 290 291 291 291 291 291 291 291
304 304 305 304 302 303 303 302 302 302 304 302 300 300 300 300 301 301 301 302 302 300 300 302 302 300 301 300 297 296 296 295 294 293 293 292 292 291 291 291 290 290 290 289 289 289 289 288 287 287 287 287 287 287 288 288 288 289 289 288 287 287 287 287 287 287 287 286 286 286 286 287 288 289 289 289 290 290 290 290 290 290 290 291 291 291
304 305 305 304 303 302 302 301 301 301 303 303 301 300 299 299 300 300 302 304 302 299 299 301 301 299 299 300 296 295 297 296 294 294 293 293 292 291 291 290 290 290 290 289 288 288 288 288 287 287 287 287 287 287 288 288 288 287 288 288 287 287 286 286 287 286 287 287 286 286 286 287 288 288 289 289 289 289 289 289 290 290 290 290 290 290
302 303 302 303 302 301 301 301 301 301 302 303 302 300 297 297 299 299 301 302 300 299 298 299 299 298 298 299 298 298 298 296 294 294 293 293 292 292 291 290 290 290 289 289 288 288 287 287 287 287 287 286 286 287 287 287 287 287 287 287 287 286 286 286 286 286 286 286 286 286 286 286 287 288 288 288 288 289 289 289 289 289 289 289 289 290
300 300 302 303 302 301 301 301 300 300 302 302 302 301 299 298 298 298 298 299 299 299 298 298 298 298 298 299 299 299 297 294 293 294 293 293 292 292 291 291 290 290 289 288 288 288 287 286 286 286 286 286 286 286 287 287 286 286 287 287 287 286 286 286 286 286 286 286 286 286 286 286 286 287 288 288 288 288 288 289 289 289 289 289 289 289
302 302 302 301 300 301 300 300 300 298 301 303 301 299 299 298 298 298 299 299 298 298 298 297 297 298 298 300 299 296 293 292 293 293 293 292 292 291 291 291 290 289 288 287 287 287 287 287 286 286 286 286 286 286 286 286 286 286 287 287 286 286 286 286 285 285 285 285 286 286 286 286 286 287 287 287 287 288 288 288 288 289 289 289 289 289
303 301 299 298 298 299 300 301 301 300 302 302 300 299 298 298 298 298 298 298 297 298 298 297 297 298 298 299 297 294 293 292 293 293 292 292 291 291 291 290 289 288 287 287 286 286 286 287 286 286 286 286 286 286 286 286 286 286 286 286 286 285 285 285 285 285 285 285 286 286 286 286 286 286 287 287 287 287 288 288 288 288 289 289 289 289
302 301 300 299 299 298 299 301 301 301 301 300 299 299 298 297 297 298 298 298 298 299 298 297 297 298 298 298 296 294 294 293 293 292 292 292 291 291 290 289 288 287 287 286 286 286 286 286 286 286 286 286 286 286 286 286 286 286 286 285 285 285 285 285 285 285 285 285 286 286 286 286 286 286 286 287 287 287 287 287 288 288 288 288 288 288
301 301 301 300 299 299 299 299 300 300 300 299 299 299 298 298 298 298 298 298 298 298 298 298 298 298 298 298 295 294 293 293 293 293 292 291 291 289 288 287 287 286 286 286 286 286 286 286 286 286 286 286 286 286 286 286 286 286 285 285 285 285 285 285 285 285 285 285 286 286 286 286 286 286 286 286 286 287 287 287 287 287 287 288 288 288
300 300 300 299 297 298 298 296 298 300 299 298 298 299 298 297 298 298 298 298 299 299 299 299 298 297 297 296 293 293 293 293 293 292 291 290 289 288 287 286 286 286 286 286 286 285 286 286 286 286 286 286 286 286 286 286 285 285 285 285 284 284 285 285 285 285 285 285 286 286 286 286 286 286 286 286 286 286 286 287 287 287 287 287 287 287
300 300 299 298 297 297 296 297 298 299 299 298 298 298 298 297 298 298 298 298 298 297 298 297 297 297 297 295 293 293 294 293 291 290 289 289 287 287 286 286 286 285 285 285 285 285 286 286 286 286 286 286 286 286 286 285 285 285 284 284 284 284 285 285 285 285 285 285 285 285 286 286 286 286 286 286 286 286 286 286 287 287 287 287 287 287
298 301 300 298 299 297 293 296 299 297 298 298 297 297 297 296 297 297 296 297 296 296 297 296 296 296 296 296 295 294 293 292 290 289 288 287 286 285 285 285 285 285 285 285 285 285 286 286 285 286 286 285 286 285 285 285 284 284 284 284 284 285 285 285 285 285 285 285 285 285 285 285 286 286 286 286 286 286 286 286 286 286 286 287 287 287
296 300 300 296 298 297 293 296 298 297 297 298 297 297 295 296 297 297 296 296 296 296 296 296 296 296 295 296 296 295 292 290 289 288 287 286 285 285 285 285 285 285 285 285 285 285 285 286 285 285 286 285 285 285 285 285 284 284 284 284 285 285 284 284 285 285 285 285 285 285 285 285 285 285 286 286 286 286 286 286 286 286 286 286 286 286
296 299 299 298 298 297 295 296 297 297 297 298 297 296 295 295 296 296 295 295 295 296 296 296 296 295 295 296 295 293 291 290 288 287 286 285 285 285 284 284 285 285 284 284 284 285 285 286 285 285 286 285 285 285 284 284 284 284 284 284 284 284 284 284 284 285 285 285 285 285 285 285 285 285 285 285 285 285 286 286 286 286 286 286 286 286
296 297 297 299 299 297 296 295 296 297 297 297 297 296 295 296 295 295 294 294 294 295 295 295 295 294 294 295 294 292 290 289 287 285 285 285 284 284 284 284 285 284 284 284 284 285 285 285 285 285 285 285 284 284 284 284 284 284 284 284 284 284 284 284 284 285 284 284 284 285 285 285 285 285 285 285 285 285 285 285 285 286 286 286 286 286
298 297 297 299 298 297 296 293 293 295 296 296 296 296 295 294 295 295 295 294 293 294 294 294 294 293 293 294 293 291 290 288 286 285 284 284 284 284 284 284 284 284 284 284 284 285 285 285 285 285 285 284 284 284 284 284 284 284 284 284 284 284 284 284 284 284 284 284 284 284 284 284 284 285 285 285 285 285 285 285 285 285 285 286 286 286
296 297 297 298 297 296 294 291 292 294 294 294 294 294 294 293 293 294 296 294 293 294 294 293 293 293 294 294 292 290 289 287 285 285 284 284 284 284 284 284 284 284 284 284 284 285 285 285 285 285 284 284 284 284 284 284 284 284 284 284 284 284 284 284 284 284 284 284 283 284 284 284 284 284 284 285 285 285 285 285 285 285 285 285 285 285
295 296 296 297 296 295 292 291 293 293 293 294 293 292 292 292 292 292 293 291 291 293 292 291 292 292 292 293 291 289 288 285 285 284 284 284 284 284 284 284 284 284 284 284 284 285 285 285 284 284 283 283 284 284 283 283 283 283 283 283 283 283 283 283 283 283 283 283 283 283 284 284 284 284 284 284 284 285 285 285 285 285 285 285 285 285
296 296 296 296 295 295 294 294 294 293 294 295 292 290 290 290 291 291 289 289 291 292 291 290 291 291 291 291 289 288 287 285 284 284 284 284 284 284 284 284 284 284 284 284 284 284 284 284 284 283 283 284 283 283 283 283 283 283 283 283 283 283 283 283 283 283 282 282 283 283 284 284 284 284 284 284 284 284 284 285 285 285 285 285 285 285
296 296 295 294 294 294 295 295 295 295 295 295 292 290 289 290 290 291 290 290 291 291 290 290 291 290 289 289 287 286 285 284 284 284 284 284 284 284 284 284 284 283 284 284 284 283 283 283 283 283 283 283 283 282 282 282 282 281 281 281 281 282 282 281 282 282 282 282 282 283 283 284 284 284 284 284 284 284 284 285 285 285 285 285 285 285
295 297 295 294 294 295 295 295 295 296 295 295 295 292 290 289 289 290 291 291 291 291 290 290 290 289 287 286 286 285 284 284 283 283 283 283 283 283 283 283 284 283 284 284 283 283 282 282 283 283 283 282 282 282 282 281 280 280 280 280 280 281 281 281 281 281 282 282 282 282 282 283 284 284 284 284 284 284 284 284 285 285 285 285 285 285
296 297 295 295 295 295 295 295 295 295 295 294 295 293 290 289 289 290 291 290 290 289 289 289 287 287 286 285 285 285 284 283 283 283 283 283 283 283 283 283 283 283 283 283 283 282 282 282 283 283 282 282 282 281 280 279 279 279 279 279 279 280 280 281 281 281 281 282 282 282 282 283 284 284 284 284 284 284 284 284 285 285 285 285 285 285
295 295 295 296 296 294 294 294 294 294 293 293 293 292 291 289 289 290 290 289 288 287 287 287 285 284 284 284 284 284 283 283 283 283 283 283 283 283 283 283 283 283 283 282 282 282 282 282 282 282 282 281 281 280 278 278 278 278 278 278 279 280 280 280 279 280 280 280 281 282 282 283 283 284 284 284 284 284 284 285 285 285 285 285 285 285
293 295 296 295 295 295 293 293 293 292 292 291 291 291 291 290 290 290 289 287 286 286 285 284 284 284 284 284 284 284 284 283 283 283 283 283 283 283 282 283 283 282 282 282 281 281 281 281 281 282 281 280 279 278 277 277 278 277 277 277 278 279 279 279 279 279 279 280 281 282 282 283 283 284 284 284 284 284 284 285 285 285 285 285 285 285
292 294 296 293 294 295 293 292 292 291 290 290 291 291 290 290 289 288 287 286 285 285 284 284 283 284 284 284 284 283 284 283 283 283 283 282 283 282 282 282 282 282 282 281 281 281 281 280 281 281 280 279 278 277 277 277 277 277 276 277 277 278 278 278 278 278 279 280 281 281 282 283 283 283 283 283 284 284 284 285 285 285 285 285 285 285
293 293 293 292 294 294 293 292 291 290 290 290 291 291 290 288 287 286 285 285 285 284 284 284 283 283 284 284 283 283 283 283 283 282 282 282 282 282 282 282 282 281 281 281 281 280 280 280 280 279 278 278 277 276 276 276 276 276 276 276 276 277 277 277 276 277 278 279 280 281 281 282 282 282 283 283 283 284 284 284 285 285 285 285 285 285
291 292 292 291 292 293 292 290 289 289 290 291 291 289 288 286 285 285 285 284 284 284 283 283 283 283 283 283 283 283 283 282 282 282 282 282 282 282 282 281 281 281 281 281 280 280 279 280 279 278 277 276 276 276 275 275 276 276 276 275 275 275 275 276 276 277 278 279 280 281 281 281 282 282 282 283 283 284 284 284 284 285 285 285 285 285
291 292 292 289 291 292 291 289 290 292 291 290 290 289 287 285 284 284 284 284 284 284 283 283 283 283 283 283 283 282 282 282 282 282 282 282 282 282 281 281 281 280 280 280 280 279 279 280 279 277 276 275 275 275 274 275 275 275 275 274 274 274 275 276 277 277 278 279 279 280 280 281 281 282 282 282 283 283 284 284 284 285 285 285 285 285
294 293 291 288 289 291 290 289 291 292 290 289 289 289 286 285 284 284 284 284 284 283 283 283 283 283 283 283 283 282 282 282 282 281 282 282 282 281 281 280 280 280 280 279 279 279 279 279 277 276 275 274 274 274 274 274 275 274 274 273 274 274 275 275 276 277 277 278 278 278 279 280 281 281 282 282 283 283 284 284 284 284 285 285 285 285
294 292 289 288 288 289 289 288 290 290 289 289 289 288 286 285 284 284 283 284 283 283 283 283 283 283 283 282 282 282 282 282 281 281 281 281 281 281 280 280 280 279 279 279 279 279 279 278 276 275 274 274 273 273 274 274 274 273 273 273 273 273 274 275 276 276 276 277 277 278 278 279 280 281 282 282 282 283 283 283 284 284 285 285 285 285
292 291 289 288 288 288 288 288 289 288 289 289 288 287 285 284 283 283 283 283 283 283 283 283 282 282 282 282 282 282 282 281 281 281 281 281 280 280 280 280 279 279 279 279 278 278 278 277 275 275 274 273 273 273 274 273 273 272 272 273 273 273 274 274 275 275 276 276 276 277 278 279 279 281 282 282 282 283 283 283 283 284 285 285 285 285
289 289 289 289 288 287 287 288 289 289 289 288 287 285 285 284 284 283 282 282 283 283 283 282 282 282 282 282 282 281 281 280 280 280 280 280 280 280 280 280 279 279 279 278 278 278 277 276 275 274 273 273 272 273 273 272 272 272 272 272 272 273 273 274 274 275 275 275 276 277 278 278 279 280 281 282 283 283 283 283 284 284 285 285 285 285
288 287 288 288 287 286 287 287 288 288 288 287 285 285 285 284 284 283 282 283 283 283 283 282 282 282 282 282 281 281 280 280 279 280 280 279 279 279 279 279 279 278 278 278 277 277 277 275 274 273 273 272 272 272 272 271 271 271 272 272 272 272 273 273 274 274 274 275 276 277 277 277 278 280 281 282 283 283 283 284 284 284 285 285 285 285
289 287 287 288 288 286 287 287 286 287 287 285 284 284 284 284 283 283 282 283 283 282 282 282 282 282 282 281 281 281 280 279 279 279 279 279 279 279 278 278 278 278 277 277 277 276 276 274 273 273 272 272 272 272 271 271 271 271 271 271 271 272 272 273 273 273 273 275 275 276 276 277 278 280 281 282 283 283 284 284 284 284 284 285 285 285
289 287 286 286 287 287 287 287 286 286 286 284 284 285 284 284 283 282 282 282 282 282 282 282 282 281 281 281 280 280 279 279 279 279 279 279 278 278 278 277 277 277 277 277 276 275 274 273 273 272 272 272 271 271 271 270 270 270 271 271 271 271 272 272 272 272 273 274 275 275 275 277 278 279 280 281 283 283 284 284 284 284 285 285 285 286
290 288 286 286 287 286 286 286 286 286 285 284 285 285 284 283 282 282 283 282 282 282 282 282 282 281 281 281 280 280 279 279 279 278 278 278 277 277 277 277 277 277 276 276 275 274 273 273 272 272 271 271 271 270 270 270 270 270 270 270 271 271 271 272 272 272 273 274 274 275 275 276 277 278 279 281 282 283 284 284 284 284 285 285 286 286
289 289 288 287 286 286 286 285 285 286 285 285 285 284 283 282 282 282 283 282 282 282 281 281 281 281 281 280 279 279 279 278 278 278 277 277 277 277 277 276 276 276 275 275 274 273 273 272 272 271 271 270 270 270 270 270 269 270 270 270 270 271 271 271 272 272 273 273 274 274 275 276 277 278 279 281 282 283 284 284 284 285 285 286 286 284
287 287 288 286 284 284 284 284 285 285 285 285 284 283 282 283 283 283 282 282 282 282 281 281 281 281 280 280 279 279 278 278 277 277 276 276 276 276 276 276 275 275 275 274 273 272 272 271 271 271 270 270 270 269 269 269 269 269 270 270 270 270 271 271 271 272 273 273 273 274 274 275 276 277 279 281 283 284 284 285 285 285 286 286 285 282
287 287 287 286 285 285 284 285 285 285 285 285 284 283 283 283 283 282 282 281 281 281 281 281 281 280 280 279 278 278 277 277 277 276 276 275 275 275 276 275 275 274 274 273 273 272 271 271 271 270 270 269 269 269 269 269 269 269 269 270 270 270 270 271 271 272 272 273 273 273 274 275 276 277 279 281 282 283 284 285 285 286 286 286 283 281
286 286 286 286 286 285 285 286 286 285 284 284 284 283 283 283 283 282 282 281 281 281 281 280 280 280 279 278 278 277 277 276 276 276 275 275 275 275 275 274 274 273 273 272 272 271 270 270 270 270 269 269 268 268 269 269 269 269 269 269 270 270 270 270 271 272 272 272 272 273 274 275 276 277 278 280 281 282 284 285 285 286 286 284 282 281
284 285 286 285 285 284 284 285 284 283 283 283 283 283 283 282 283 282 281 281 281 281 281 280 280 279 279 278 277 277 276 276 275 275 275 274 274 274 274 274 273 272 272 271 271 270 270 270 270 269 269 269 268 268 268 268 269 269 269 269 270 270 270 270 271 271 272 272 272 273 274 275 276 277 278 280 281 281 283 284 285 286 285 283 281 280
284 285 285 284 284 284 284 284 284 283 284 283 283 283 282 282 282 282 281 281 281 280 280 280 280 279 278 277 277 276 276 275 275 274 274 274 274 274 273 273 272 272 271 270 270 270 270 269 269 269 268 268 268 268 268 268 268 269 269 269 269 269 270 270 271 271 271 271 272 273 274 275 276 276 278 279 280 281 282 283 285 285 283 281 280 279
284 285 284 283 283 283 283 283 283 283 283 283 283 283 282 282 282 281 281 281 281 280 280 279 279 278 277 277 277 276 275 275 275 274 274 273 273 273 273 272 271 271 270 270 269 269 269 269 269 268 268 268 268 268 268 268 268 268 268 269 269 269 270 270 270 270 271 271 272 273 274 275 275 276 277 278 279 280 281 283 284 284 282 280 280 280
284 284 284 283 283 283 283 283 283 282 282 282 283 282 282 282 281 280 281 280 280 279 279 278 278 278 277 277 276 275 275 274 274 274 273 273 273 273 272 271 271 270 269 269 269 269 269 268 268 268 267 267 267 267 268 268 268 268 268 268 269 269 269 270 270 270 271 271 272 273 274 274 275 276 277 278 279 280 281 282 284 284 282 280 279 280
284 284 283 283 283 283 283 283 283 282 282 282 282 282 282 282 281 280 280 280 279 279 279 277 277 276 276 276 276 275 275 274 274 273 273 273 272 272 271 270 270 269 269 269 269 269 268 268 267 267 267 267 267 267 267 267 267 268 268 268 269 269 269 269 270 270 271 271 272 273 273 274 275 276 277 278 279 280 281 282 284 284 282 280 279 279
Wind_Speed
2 5 7 5 6 7 6 5 3 2 2 2 2 3 5 5 7 10 5 4 6 7 2 4 6 8 7 7 8 7 9 13 12 12 12 11 11 11 12 12 13 13 13 16 19 21 23 23 24 24 24 26 28 27 25 25 26 25 23 24 24 24 23 22 22 22 22 21 21 20 19 19 19 19 17 15 15 14 14 13 12 14 15 15 17 19
2 8 7 5 5 5 5 3 2 0 1 2 3 5 6 3 7 12 6 2 3 5 1 2 4 7 7 7 8 7 9 12 12 12 12 12 11 10 11 13 13 12 12 16 20 22 24 25 26 25 25 28 29 28 27 26 27 25 22 23 23 23 23 21 21 21 21 20 21 21 20 20 19 17 16 15 16 15 14 14 12 11 12 13 16 18
6 8 5 4 2 1 1 2 1 1 1 3 3 5 6 5 7 9 2 4 1 3 0 1 2 4 7 6 7 8 9 9 9 11 11 11 11 10 11 12 13 13 14 17 20 23 25 26 27 26 27 28 28 27 27 26 26 24 22 23 23 23 22 21 21 22 22 22 22 21 20 20 19 17 16 16 16 15 14 14 14 12 11 11 13 15
6 6 4 2 1 2 1 2 1 2 1 2 3 6 6 8 8 4 1 2 5 4 3 2 1 4 6 6 7 7 6 7 7 9 9 9 10 10 10 11 12 14 15 16 18 21 25 27 27 28 29 29 28 27 27 26 25 23 22 23 23 23 21 21 22 23 25 26 24 22 20 20 19 17 16 15 13 12 12 14 13 13 13 12 13 14
6 3 2 1 1 1 2 2 4 2 2 1 2 5 8 9 8 7 6 10 9 2 2 5 4 4 6 5 5 4 4 6 6 8 8 8 9 9 9 11 12 13 14 16 17 20 24 27 28 29 31 31 30 29 27 25 24 23 23 22 21 21 21 21 22 24 26 27 26 25 23 21 19 17 16 15 14 13 13 13 12 12 13 13 14 14
5 2 1 1 1 3 1 3 5 4 4 1 1 3 8 10 10 11 9 10 7 0 2 3 5 1 6 7 4 3 3 5 6 8 9 9 9 10 10 11 12 13 13 15 17 20 23 27 29 31 32 32 31 31 29 25 23 23 22 20 19 20 20 19 20 23 26 25 25 26 26 23 21 20 17 16 16 17 16 15 14 14 13 12 13 14
3 1 1 1 1 2 3 3 3 2 4 4 3 3 6 8 10 10 7 6 5 5 2 1 5 5 3 7 6 5 4 5 6 8 9 9 10 10 10 11 12 13 14 15 17 21 24 28 32 34 34 33 32 33 30 25 23 23 21 18 17 18 19 19 20 22 23 22 23 25 25 25 23 22 21 19 19 19 18 18 17 16 14 13 13 13
2 1 1 2 2 3 4 3 2 1 4 5 4 5 7 9 10 6 4 4 3 5 3 2 2 6 4 3 7 5 2 4 6 7 7 8 9 10 10 11 12 13 14 15 16 21 25 29 33 34 36 35 36 36 31 26 25 26 23 19 17 18 20 20 21 22 22 22 23 23 24 24 23 22 23 23 22 20 19 19 19 18 16 15 14 13
1 3 4 4 5 5 4 4 2 2 3 4 4 6 7 7 7 4 4 5 1 2 2 3 1 6 8 1 6 6 4 1 5 6 7 8 10 11 11 12 14 14 14 16 17 21 26 32 34 34 35 35 37 37 32 27 28 29 27 23 19 19 21 22 24 25 25 25 24 23 24 24 24 24 24 24 23 22 21 21 20 19 18 17 15 14
0 2 2 2 4 5 5 4 2 4 2 6 8 7 4 3 3 2 3 4 2 2 4 5 4 6 10 6 2 5 3 2 5 6 8 11 11 12 12 13 15 14 14 16 18 23 30 34 35 34 34 35 35 33 31 29 30 31 29 25 22 22 24 26 27 28 28 29 26 24 23 25 26 25 24 25 24 24 22 22 22 20 19 18 16 15
1 1 0 1 2 3 5 3 2 4 5 8 8 7 3 4 3 3 2 3 3 4 5 5 4 5 9 7 1 1 2 1 4 6 9 13 13 13 12 12 15 14 14 16 19 25 31 34 33 33 33 35 34 32 30 29 29 30 27 25 25 27 28 29 28 28 29 29 26 24 24 26 26 25 25 25 25 25 23 22 22 20 19 18 17 18
2 1 1 0 1 2 3 2 2 3 6 5 6 9 7 2 2 1 1 3 4 7 4 4 2 5 8 5 2 5 4 2 2 7 12 15 15 14 12 12 14 14 15 17 19 22 28 30 31 32 34 34 33 32 30 29 29 28 25 24 27 31 32 31 29 28 28 27 24 24 26 26 26 25 25 25 25 25 24 23 22 21 19 18 17 18
2 2 1 1 1 1 4 3 1 2 3 4 7 9 9 6 6 5 6 6 5 8 4 3 3 7 8 3 5 6 4 2 3 5 9 13 14 15 15 14 13 14 17 19 18 19 22 26 29 31 32 31 30 30 31 31 30 26 23 27 32 35 35 34 32 30 29 28 25 26 27 27 26 25 26 27 27 26 24 23 23 21 20 19 19 17
1 2 1 0 2 1 3 4 3 2 4 7 7 8 8 6 6 6 7 7 7 10 7 2 4 7 8 2 5 6 3 1 4 6 9 12 13 15 15 15 15 17 19 19 19 19 19 25 30 31 31 30 29 30 31 31 27 23 26 32 36 37 37 35 33 32 31 30 28 27 27 27 27 26 26 26 27 26 24 24 24 23 22 20 20 19
2 1 2 3 2 2 3 4 4 3 3 3 2 4 5 4 4 5 6 7 9 12 13 9 4 6 8 2 6 5 1 4 6 7 10 14 14 14 15 17 19 20 20 19 20 21 23 30 32 31 31 31 30 31 31 27 24 26 33 35 35 37 38 36 34 32 31 30 28 28 28 28 28 27 27 26 26 26 25 25 25 25 24 22 22 21
3 1 2 3 2 3 4 2 1 2 1 2 0 2 5 5 3 5 7 7 9 10 10 7 4 5 5 3 6 2 3 6 10 12 15 18 17 17 17 19 20 20 21 21 20 21 26 32 33 32 33 32 31 32 29 24 26 33 36 35 35 37 37 36 34 33 31 30 29 29 29 29 29 28 27 27 27 27 26 26 26 26 26 25 25 24
2 1 2 2 1 3 4 2 1 3 2 1 2 4 6 4 3 4 7 7 6 9 7 6 7 8 5 2 4 1 4 9 14 17 19 20 20 20 19 19 21 22 23 23 22 22 26 32 34 35 35 33 33 31 26 26 32 36 36 37 38 37 35 35 34 33 32 31 31 31 30 30 29 28 28 28 28 28 28 27 27 26 26 26 26 26
3 3 2 3 2 3 1 1 3 3 4 3 4 6 5 2 2 0 5 5 6 8 8 9 12 12 9 4 1 0 7 13 16 19 21 20 20 20 20 22 25 25 24 24 24 24 29 34 35 36 36 35 32 27 26 31 35 35 36 38 37 35 35 34 33 32 32 31 32 31 30 30 29 29 28 28 29 29 28 28 27 27 27 27 26 26
2 4 1 2 3 1 2 2 2 3 4 4 4 3 3 1 1 2 3 5 7 8 8 11 14 12 9 6 3 5 11 15 17 20 21 20 20 20 22 26 27 26 24 23 22 23 27 33 35 36 35 32 28 27 31 35 36 36 36 35 34 34 35 33 32 32 31 31 31 30 31 31 30 29 29 29 29 29 29 28 28 27 28 27 27 26
1 3 1 1 3 3 2 1 2 2 4 3 4 2 2 1 3 4 3 4 7 9 10 12 13 9 5 4 5 8 13 16 18 18 18 19 21 22 24 25 24 24 23 21 22 23 26 33 37 34 29 27 28 33 36 38 38 37 34 35 35 34 33 32 31 31 30 31 31 31 31 31 31 30 29 29 30 29 29 28 28 28 28 28 27 26
1 1 3 3 5 4 0 3 4 2 3 2 3 4 3 1 2 3 2 2 3 7 9 11 12 9 5 3 3 8 15 17 16 16 18 19 23 26 26 24 23 23 23 23 24 24 27 35 36 29 27 31 35 37 38 38 38 36 35 36 35 31 32 31 29 29 29 29 30 31 31 31 31 30 29 29 29 28 28 27 27 28 27 27 27 26
1 2 4 6 7 4 3 3 2 1 5 4 4 3 2 3 2 4 3 1 1 4 6 9 13 11 4 1 2 11 18 16 14 17 19 22 26 27 25 25 25 24 24 26 26 25 27 32 31 28 32 37 38 37 37 37 37 37 36 35 32 30 31 30 28 29 29 29 29 30 30 30 30 29 29 29 29 28 28 27 27 27 26 27 27 26
2 2 2 5 6 3 5 2 0 6 11 8 4 2 1 1 1 4 6 4 2 5 6 9 13 10 0 4 5 17 19 14 14 19 22 24 27 26 25 28 27 26 26 28 27 26 27 29 29 32 37 40 37 35 36 37 36 35 34 33 32 32 32 30 29 29 30 32 32 30 29 30 29 30 30 29 29 28 28 27 27 27 27 27 27 26
1 2 2 5 4 2 5 2 1 5 7 6 5 3 2 1 0 2 3 3 5 7 8 9 12 10 1 1 12 21 20 14 15 21 25 24 24 25 28 30 28 27 28 29 27 25 28 30 31 35 38 38 35 33 35 36 34 33 34 33 32 34 35 33 32 32 32 33 33 31 29 29 29 30 30 29 29 28 28 28 28 27 27 28 28 28
1 1 3 6 5 2 1 1 1 2 1 2 3 3 2 2 1 0 1 1 5 7 7 10 12 12 10 14 20 23 20 17 19 24 26 24 24 26 27 28 27 27 28 28 26 24 26 29 31 35 36 34 34 34 35 34 33 33 34 33 34 35 36 36 36 37 37 35 33 30 28 28 29 29 29 29 28 28 28 27 27 27 27 27 27 28
1 1 3 5 5 6 6 5 5 5 5 2 3 3 3 3 2 1 2 4 7 9 10 10 12 17 22 25 26 24 19 19 24 28 27 25 25 28 27 26 27 26 26 26 25 24 26 27 30 35 35 34 35 35 33 32 33 37 39 40 40 38 38 39 38 38 37 34 31 29 28 29 28 28 27 27 27 27 27 27 27 27 27 27 27 27
0 1 3 2 3 6 8 10 10 9 6 6 3 3 2 1 1 2 4 5 9 13 12 11 13 22 29 29 28 24 19 21 27 30 29 27 27 28 27 27 27 26 24 24 24 25 27 28 29 32 34 37 37 32 30 34 40 43 45 44 41 39 38 37 35 34 32 30 28 29 29 28 27 27 26 26 26 27 27 27 27 27 27 27 26 26
1 1 1 1 7 10 11 14 14 9 7 9 8 1 3 2 1 2 5 8 11 11 12 15 20 24 27 28 28 24 21 24 29 29 28 28 28 27 27 29 30 28 25 26 27 28 29 28 27 30 36 39 36 32 34 42 44 42 39 38 37 36 35 33 32 32 31 29 29 29 28 27 26 26 26 26 26 27 27 27 26 26 26 26 26 27
1 1 1 1 7 11 13 13 10 6 5 7 7 3 3 3 3 4 8 11 10 10 14 22 27 26 24 26 25 24 26 29 29 28 28 29 29 29 29 31 30 27 28 30 30 30 31 28 26 31 39 38 33 32 37 40 39 35 34 35 34 32 31 31 32 32 31 30 30 28 27 26 26 26 26 26 26 26 26 25 25 25 25 25 25 26
1 0 1 1 7 10 10 7 3 4 7 5 4 3 1 1 3 5 10 13 13 14 18 23 28 25 20 20 22 24 28 28 25 25 27 30 30 31 32 31 29 29 30 30 31 30 30 29 29 33 36 33 32 36 38 37 35 33 34 35 34 32 31 31 32 32 30 29 28 28 27 27 26 26 25 25 25 25 25 24 24 24 24 25 26 26
2 2 2 1 5 6 3 3 4 6 6 3 5 4 2 5 6 7 10 12 13 16 20 23 24 20 14 16 24 27 27 26 25 27 28 28 29 31 31 30 30 32 32 31 31 30 29 30 30 28 28 31 36 40 39 36 35 34 35 35 34 34 32 32 34 33 30 29 28 27 27 26 25 25 24 25 25 24 24 24 23 23 24 24 26 26
3 2 1 1 4 4 2 8 13 7 3 4 4 2 3 6 8 8 8 10 12 17 22 21 16 13 13 19 27 29 29 30 29 28 27 26 28 30 28 26 28 32 32 32 32 31 31 31 26 22 26 36 42 41 38 36 35 35 35 34 35 36 35 36 36 33 30 29 28 26 25 25 24 24 24 24 24 24 25 24 23 23 24 24 25 25
1 1 1 2 4 6 7 14 14 3 5 2 2 1 5 10 13 13 11 12 15 14 14 14 12 14 19 24 29 31 32 32 29 26 26 27 26 26 24 24 28 30 30 30 31 31 31 29 24 24 32 40 41 39 37 37 35 34 34 36 39 39 37 35 33 31 30 29 28 27 26 25 24 25 24 24 24 24 24 23 23 23 23 24 24 23
1 1 1 2 4 7 11 16 12 2 2 2 3 5 8 12 15 16 16 16 16 13 12 13 15 20 24 26 29 31 31 30 28 27 28 26 23 23 24 26 27 28 29 30 30 29 29 29 27 30 39 45 43 38 38 38 34 33 37 40 40 38 35 32 30 30 29 29 29 28 28 27 26 26 25 25 24 24 24 23 23 23 23 23 23 22
2 2 1 0 2 4 8 10 7 4 5 2 5 4 7 9 13 18 20 16 15 16 17 17 19 25 28 26 26 27 29 30 30 30 29 27 24 25 26 27 28 29 29 29 29 30 32 31 30 33 41 43 40 38 39 36 32 35 40 40 37 35 33 31 31 30 30 29 30 30 30 29 28 27 26 26 24 24 24 23 23 23 22 22 23 23
2 2 1 0 1 3 5 5 3 6 4 4 5 1 7 10 14 17 19 18 16 14 13 17 24 27 28 27 25 25 28 29 26 25 25 26 27 29 28 27 27 28 29 29 31 34 34 30 31 39 43 40 38 39 38 33 33 38 40 37 34 33 32 31 31 31 30 31 31 31 30 31 31 29 27 26 25 24 24 23 23 23 22 23 24 24
3 2 1 2 1 1 4 4 4 8 4 3 3 2 6 10 12 12 15 17 13 8 12 21 28 29 28 28 27 26 28 27 21 18 21 26 30 33 33 32 31 32 33 36 38 38 34 31 35 42 43 40 40 39 34 33 37 39 36 34 34 33 32 31 31 31 32 32 31 31 32 33 32 30 28 26 25 24 24 24 24 23 23 24 25 25
4 2 2 2 1 0 4 5 4 5 3 2 2 4 6 7 9 11 14 13 6 8 18 25 29 31 30 29 28 27 25 22 18 16 21 28 31 32 35 38 41 41 39 40 42 39 35 36 40 42 40 39 39 36 33 37 39 37 34 34 34 33 32 31 32 33 34 34 32 33 35 35 33 31 29 26 25 25 25 25 24 25 25 25 25 26
5 3 1 1 1 1 2 3 3 4 2 2 4 9 8 8 11 13 12 8 7 16 24 26 28 30 29 28 28 25 19 16 15 16 21 29 32 31 31 34 41 45 43 43 43 39 38 41 42 41 40 39 38 36 36 38 38 35 33 34 33 32 31 31 32 35 36 34 34 36 37 35 33 31 29 26 25 26 25 24 25 25 24 25 26 26
4 2 2 1 1 1 2 3 3 3 1 2 6 11 11 12 14 13 8 7 14 23 25 25 27 28 26 26 24 20 16 15 16 19 25 32 35 36 35 34 38 42 44 45 43 40 41 42 40 40 41 39 37 37 37 38 36 34 33 33 32 31 31 32 34 36 36 34 35 37 37 34 32 31 30 28 26 24 23 24 24 25 26 26 26 27
1 1 1 1 2 3 3 3 3 3 2 3 7 11 13 13 11 8 7 11 18 24 24 24 25 25 24 23 19 15 16 19 21 25 30 33 33 35 39 40 41 41 43 44 43 42 42 41 39 40 40 38 38 38 38 36 35 34 33 32 31 31 32 34 36 36 35 34 36 38 36 34 33 32 31 30 26 24 24 24 25 27 27 27 27 28
0 1 1 1 3 2 2 4 5 3 2 4 10 12 12 10 7 6 10 16 20 23 24 24 23 23 23 22 20 18 20 25 26 27 30 30 29 31 37 42 42 42 43 43 42 42 42 40 39 40 39 38 39 38 37 37 35 34 33 31 31 33 34 35 36 36 35 36 37 37 35 35 34 33 31 30 27 26 26 26 27 28 27 27 29 26
0 1 1 1 2 2 2 2 4 3 2 8 12 11 8 7 8 10 14 17 19 21 22 21 20 21 21 22 22 23 25 27 27 27 28 29 29 31 36 39 40 41 43 43 42 42 42 40 39 39 38 39 39 38 38 37 34 33 32 31 32 34 34 34 35 35 35 35 36 36 36 36 35 33 31 29 28 27 27 26 27 27 27 28 24 17
2 0 2 1 1 1 2 1 1 6 7 9 9 9 8 9 10 11 13 15 16 17 17 17 18 20 21 22 24 24 25 25 25 26 28 28 27 30 34 37 39 41 41 42 43 43 42 40 39 39 39 39 39 39 38 36 33 33 33 33 34 34 33 34 35 34 34 35 35 35 36 35 34 33 31 29 28 27 26 26 26 26 27 24 14 8
2 2 2 2 2 2 4 6 6 9 9 8 8 10 12 13 12 13 15 14 14 14 14 15 18 21 22 24 24 23 22 23 25 26 26 26 26 28 32 36 39 41 41 41 43 43 41 40 39 39 40 39 40 40 37 34 33 32 32 33 34 33 34 35 35 34 34 35 35 35 35 34 34 32 30 29 28 26 25 24 23 24 25 18 8 7
1 2 1 1 3 4 7 10 10 10 10 10 10 9 10 11 11 13 15 14 14 15 14 15 18 21 22 24 24 22 21 23 25 26 26 25 26 30 35 37 38 41 42 41 42 42 41 40 39 39 39 41 41 39 36 33 32 32 32 33 33 33 34 35 34 34 34 35 35 35 33 32 31 30 30 29 27 26 25 22 22 23 20 12 8 8
1 2 2 3 4 4 4 6 8 11 13 14 12 10 11 13 14 14 14 14 16 18 17 18 21 24 25 25 24 23 24 25 24 25 25 24 24 30 35 37 38 41 42 41 42 43 42 39 38 39 40 41 40 38 35 34 33 31 32 33 33 34 35 34 33 34 35 35 35 33 31 29 28 29 29 27 27 27 25 23 24 22 14 9 8 8
1 2 3 5 5 5 8 9 10 12 12 11 10 10 11 14 16 18 19 20 22 24 25 27 27 25 23 23 23 24 25 25 24 25 24 23 24 29 35 37 39 42 42 42 43 43 40 38 38 39 40 40 39 37 35 34 33 33 33 34 34 34 34 33 34 35 35 34 33 30 29 28 27 27 27 26 27 27 24 24 25 19 10 8 9 9
2 2 3 5 6 7 9 10 12 12 9 7 8 12 13 15 17 19 21 23 23 24 25 29 31 29 26 24 25 24 24 24 26 28 25 22 24 30 35 39 41 42 42 42 42 41 39 37 39 41 41 39 38 36 34 34 34 34 33 33 33 33 32 34 36 36 34 32 30 28 28 27 26 26 26 25 26 26 25 26 25 16 9 11 11 9
1 2 3 4 4 5 7 9 11 10 8 8 12 16 17 18 18 18 19 20 20 20 21 24 28 31 30 29 28 25 22 23 28 30 28 25 28 33 37 40 41 41 41 41 41 39 38 38 40 41 40 38 36 35 34 34 35 34 34 34 33 32 33 35 35 34 32 30 28 28 28 28 26 26 26 25 25 25 26 28 22 12 8 12 12 9
2 3 3 4 5 6 8 9 8 8 9 11 14 15 17 19 18 16 17 18 19 21 23 23 23 24 26 29 31 29 25 25 30 32 29 29 34 37 38 40 41 41 41 41 40 39 40 41 42 40 39 37 35 34 34 35 35 34 34 34 33 33 34 35 32 31 30 30 28 28 29 27 26 26 25 25 24 23 23 24 19 11 9 13 10 7
Wind_Direction
344 50 47 20 355 344 352 359 351 343 320 301 291 292 284 286 300 310 327 62 8 331 343 45 57 75 62 44 41 33 47 58 57 54 51 45 41 34 30 28 24 22 17 11 9 8 6 5 3 1 360 357 355 354 351 351 351 350 349 349 350 350 349 349 349 347 345 345 344 342 341 340 336 331 327 324 323 323 321 321 317 307 302 294 285 278
33 53 42 357 336 325 344 350 318 315 262 263 285 306 300 289 298 307 320 101 24 352 66 101 66 82 72 53 52 46 52 56 50 51 50 44 40 33 28 23 18 17 10 7 7 5 5 3 1 360 357 355 352 351 348 346 344 342 343 345 346 346 346 346 345 343 340 338 335 331 329 328 327 325 323 319 317 316 313 316 316 306 301 293 284 279
58 52 23 351 344 275 4 3 312 189 212 249 296 317 313 333 311 291 279 132 75 331 330 84 40 93 92 75 65 59 61 63 57 56 51 41 38 29 24 19 11 9 5 4 3 1 1 359 359 357 355 352 348 345 342 340 339 337 338 340 341 342 342 342 342 341 337 332 327 321 317 318 317 314 313 312 311 311 311 314 314 307 301 289 280 278
62 42 21 9 237 217 240 3 347 223 206 242 311 333 318 335 332 290 103 347 295 286 273 286 274 132 122 109 88 74 71 76 66 62 56 43 37 28 22 17 10 6 2 359 357 357 356 355 356 353 350 347 343 340 338 336 334 332 331 332 335 337 338 338 339 339 336 332 327 320 315 313 310 307 307 307 307 307 309 311 309 305 303 295 282 275
76 50 25 224 239 297 266 355 16 331 353 228 255 329 315 321 319 287 301 312 297 242 236 278 263 168 169 165 117 112 98 79 65 56 52 42 35 26 18 15 11 7 359 354 353 352 352 351 350 348 345 342 338 334 331 330 328 324 321 322 327 329 331 334 335 337 337 334 331 325 319 316 313 311 309 308 309 309 308 306 303 303 300 293 286 278
69 72 259 277 328 349 332 36 19 337 331 330 202 306 303 310 304 290 302 310 308 35 115 310 307 279 166 175 148 144 124 74 59 46 38 30 25 17 13 9 4 1 356 353 350 348 348 346 343 341 339 337 333 329 323 320 320 317 311 311 318 322 323 326 329 334 334 331 330 326 320 316 314 312 309 307 309 309 306 304 301 300 297 289 283 280
59 125 226 321 276 347 43 60 30 297 312 352 13 309 299 305 294 294 312 309 323 334 323 338 308 309 175 178 170 153 117 71 48 36 27 19 15 9 7 3 356 354 352 349 347 347 345 342 339 335 334 332 329 326 319 312 314 313 306 303 312 319 320 319 321 327 330 326 323 321 314 307 304 303 302 301 303 303 301 301 300 298 297 293 288 284
14 332 356 349 317 12 28 11 18 253 302 349 14 324 310 303 289 294 306 278 313 323 285 150 289 300 296 183 161 171 154 77 40 21 15 7 4 1 360 357 352 349 347 346 344 343 341 339 337 333 331 331 328 324 317 311 315 315 307 302 308 317 320 319 318 319 320 317 315 314 309 302 296 295 296 297 298 297 297 297 297 296 295 295 293 289
352 355 10 349 352 19 7 334 319 228 291 340 345 318 301 290 285 285 286 274 266 313 315 92 58 305 308 333 147 189 221 57 21 6 358 351 351 352 353 350 347 344 342 342 341 340 339 337 334 332 330 328 327 325 318 314 319 318 310 303 307 316 320 320 320 318 315 312 309 308 306 301 296 293 294 296 295 295 295 293 293 293 293 294 292 290
253 24 9 326 3 1 326 318 256 207 291 322 305 288 249 219 255 253 270 277 233 276 355 44 32 325 306 303 205 198 213 4 356 355 355 349 344 344 345 343 342 339 337 338 337 338 337 334 332 329 327 326 326 324 319 316 318 318 311 305 307 315 319 318 317 316 314 311 306 303 304 302 298 295 294 295 294 294 294 292 292 291 289 288 287 290
197 65 191 262 356 326 307 303 213 213 276 302 299 297 273 199 221 204 218 286 293 315 6 42 24 326 299 295 305 129 119 46 343 344 348 347 342 338 335 333 335 335 335 336 333 331 332 333 331 328 327 326 325 323 320 317 317 317 312 307 308 311 315 315 314 314 313 310 303 299 303 303 299 296 295 295 294 294 293 292 293 292 288 284 279 286
181 176 152 215 319 309 292 272 183 216 260 290 329 341 346 316 284 281 303 355 340 320 351 63 14 295 279 291 86 101 109 141 316 335 339 339 334 330 329 328 331 333 332 333 331 329 329 330 330 328 326 323 322 321 319 318 317 317 313 310 312 314 315 316 314 313 313 310 303 300 303 303 299 296 295 295 293 293 292 290 291 291 289 287 281 283
179 173 32 157 154 336 307 302 148 187 280 346 4 3 2 351 348 348 343 351 321 303 317 80 358 293 275 317 105 129 134 183 278 311 319 319 318 326 332 328 328 333 332 331 330 328 327 326 326 324 323 321 319 318 317 317 318 317 314 314 315 316 316 316 315 314 313 311 307 303 304 304 301 296 293 294 293 291 290 289 290 289 288 288 286 283
106 134 25 5 126 161 308 348 22 4 5 16 10 9 13 360 343 333 338 337 308 305 314 349 353 305 297 349 135 154 146 241 269 276 293 307 318 328 332 330 332 333 332 329 326 324 324 324 324 323 321 320 318 317 317 317 317 317 317 317 317 316 316 315 314 314 313 312 309 305 305 305 301 296 292 292 293 291 289 288 288 288 287 287 286 284
336 88 34 21 19 347 357 23 12 337 14 41 19 9 19 9 328 313 327 324 305 305 307 308 320 315 319 355 146 155 172 291 296 298 314 328 334 335 336 337 336 332 328 327 324 325 325 325 325 323 321 320 319 319 318 317 318 319 317 316 316 315 315 315 314 313 312 311 309 305 303 303 301 297 292 291 292 292 289 288 288 287 286 285 283 283
278 253 44 25 340 349 15 31 290 304 36 85 187 1 8 347 289 285 293 287 286 292 297 296 280 295 316 106 120 129 253 302 329 335 336 340 344 344 340 336 332 328 326 327 326 326 326 326 326 323 321 321 320 320 319 319 320 318 316 315 315 315 315 315 314 312 311 309 308 305 301 300 299 296 292 290 290 291 290 288 288 286 285 284 282 282
308 292 43 21 42 55 27 349 333 343 339 8 354 358 357 314 254 290 294 277 276 284 289 295 291 300 314 115 123 191 300 334 344 344 343 343 345 342 335 331 328 326 326 326 325 325 326 326 326 325 323 321 320 321 322 320 318 316 315 316 316 315 315 315 314 312 309 308 306 305 302 300 298 296 292 289 290 291 290 288 286 286 285 285 284 283
310 301 19 21 4 54 38 311 87 38 328 358 13 346 330 241 179 357 298 294 299 289 290 303 303 306 313 309 164 204 342 346 345 344 343 341 340 336 330 328 326 325 324 324 325 326 326 327 326 325 323 322 323 324 320 316 315 316 315 316 317 316 316 315 313 310 308 307 306 305 303 300 298 297 293 291 291 291 290 287 286 286 285 285 285 285
287 291 55 104 325 2 162 213 107 78 20 54 74 346 330 292 291 323 305 303 307 297 292 301 302 300 300 307 333 349 345 344 344 345 341 335 334 332 329 327 324 323 324 323 325 326 326 327 326 324 325 327 326 320 316 315 316 316 317 319 318 315 314 312 310 309 307 307 307 304 302 300 298 296 294 292 292 292 290 287 286 286 285 286 285 284
245 293 19 143 309 307 171 305 338 59 53 85 111 62 20 305 285 307 314 292 296 299 297 305 305 298 300 325 339 343 344 344 347 346 336 330 331 330 328 325 323 323 323 323 325 326 327 326 325 326 330 331 323 317 317 318 318 319 321 321 315 309 309 310 309 309 308 308 308 305 302 301 299 297 294 292 291 290 288 286 285 286 286 286 284 283
236 263 299 310 320 300 315 34 355 19 59 45 37 37 26 344 272 272 260 229 302 304 304 312 304 292 310 353 353 345 343 347 353 345 332 328 330 329 325 322 322 323 323 324 326 327 326 325 326 329 330 327 322 319 319 321 323 322 319 316 313 309 309 310 309 309 309 309 308 306 303 300 299 297 294 292 291 289 288 285 284 284 284 284 284 283
302 231 282 311 324 327 36 39 318 49 77 50 13 23 25 360 331 303 304 85 73 287 290 301 294 292 308 108 18 344 340 346 356 344 332 328 328 325 322 320 322 323 324 326 326 327 327 327 330 330 327 325 324 322 323 324 324 319 315 316 316 313 310 309 309 308 308 309 307 304 301 299 297 295 293 292 291 290 289 287 285 284 283 283 282 282
296 249 263 288 300 353 56 50 299 97 94 82 54 70 118 57 21 316 313 325 316 278 283 290 286 290 9 139 339 339 338 346 354 341 331 327 324 323 322 324 324 323 325 327 326 327 330 331 330 327 325 325 324 325 327 325 321 318 318 318 316 313 310 309 308 307 307 308 306 301 298 297 295 295 293 292 291 290 290 289 288 286 285 283 282 282
265 261 290 285 276 112 103 89 79 112 109 93 70 74 108 116 35 303 300 326 312 288 300 309 290 284 297 319 326 334 336 342 346 337 330 326 323 324 325 327 327 325 325 328 327 328 331 331 329 326 325 325 327 328 327 324 322 321 321 319 318 317 314 311 309 308 308 307 304 299 295 294 295 295 294 293 291 291 290 290 289 288 286 285 283 282
330 303 332 328 332 13 86 344 296 249 265 64 80 84 82 83 77 199 177 315 294 284 306 312 289 284 305 316 321 329 334 336 336 333 329 325 324 327 327 326 327 326 326 327 328 329 330 329 328 327 326 328 330 328 326 327 328 327 324 322 319 316 312 308 306 305 305 304 301 297 295 295 295 296 295 294 293 292 292 291 290 287 285 284 283 282
322 354 1 359 350 336 321 314 315 316 322 353 105 103 63 66 86 319 309 300 298 306 307 292 282 294 307 313 318 327 336 335 331 330 329 325 325 327 327 325 326 327 326 327 328 329 329 328 327 327 329 331 329 327 328 332 331 327 322 316 311 309 307 305 303 301 302 302 300 298 297 296 295 296 295 293 293 293 292 291 290 288 285 284 284 282
142 109 20 5 278 283 291 290 304 323 313 297 324 94 110 87 71 333 319 302 304 309 299 280 288 301 307 313 318 326 336 334 329 330 329 326 325 326 325 323 325 326 326 327 329 329 328 327 327 329 331 329 327 328 332 331 325 320 316 312 310 310 310 310 309 307 305 303 302 300 298 295 294 295 294 293 293 292 291 289 287 286 285 284 283 281
215 194 53 349 254 262 278 284 295 310 299 298 312 315 152 143 119 315 304 302 310 308 296 299 307 307 307 313 320 326 333 332 330 330 328 324 324 324 323 322 323 325 327 328 329 329 328 326 327 329 329 327 327 329 330 327 323 319 318 318 316 315 316 319 319 316 312 308 305 301 298 295 294 295 294 294 293 292 290 287 282 282 284 283 282 279
296 229 106 293 262 268 279 282 286 289 283 292 292 252 164 156 190 275 297 304 309 296 291 303 309 308 307 313 321 328 330 330 329 327 324 321 321 323 324 322 322 325 329 329 329 329 328 327 327 328 329 330 331 330 330 328 325 325 326 324 321 321 324 326 323 318 314 310 306 303 300 298 295 294 295 297 296 294 293 289 284 284 285 283 281 278
271 255 126 263 283 285 283 271 249 279 291 286 244 209 152 253 264 292 301 306 304 291 292 304 306 306 309 317 321 324 325 326 326 325 322 320 322 326 326 324 323 325 328 329 328 328 328 328 327 328 331 335 335 331 330 329 328 329 330 326 324 324 324 325 324 319 315 311 307 305 303 299 296 296 298 300 298 296 294 290 287 286 286 285 284 279
329 6 89 133 284 285 276 272 291 302 302 267 176 169 312 318 321 318 305 306 307 300 304 310 306 304 314 323 319 319 323 325 325 327 325 321 324 328 327 326 326 326 326 327 327 327 328 328 329 332 336 336 333 330 329 327 325 327 328 328 326 324 324 326 324 320 316 313 311 309 306 303 302 301 301 301 297 294 294 292 289 288 287 286 285 283
8 13 79 98 293 287 6 328 320 336 84 146 164 181 317 332 334 323 306 301 302 303 309 313 309 307 321 325 320 320 324 327 328 329 324 320 322 325 326 327 326 324 324 325 326 328 328 328 331 337 337 334 331 329 328 326 323 324 327 329 327 324 322 320 319 317 315 313 313 313 311 310 308 305 302 298 294 294 295 294 291 290 287 284 285 286
36 346 356 16 310 310 343 330 317 332 117 129 134 92 356 349 337 324 317 312 306 303 308 313 314 316 323 326 324 324 326 327 329 328 321 316 319 323 327 328 325 322 322 323 325 327 327 327 331 335 336 335 332 329 327 325 322 323 327 327 325 322 319 316 317 318 316 314 315 315 315 314 310 307 303 298 295 293 293 294 291 288 287 287 288 289
112 46 44 30 308 309 328 324 308 283 51 13 100 83 14 351 335 322 318 318 317 315 315 316 317 319 324 326 325 324 323 323 324 322 316 314 319 326 330 329 325 323 323 323 325 325 325 326 328 333 336 334 330 328 327 324 322 325 327 326 323 322 321 321 322 322 321 321 322 321 320 318 314 310 305 301 298 294 292 294 293 290 290 292 293 293
63 56 102 27 292 287 317 331 334 360 21 87 135 78 8 342 327 320 315 318 326 325 320 320 321 322 323 323 322 320 319 319 320 318 314 315 322 328 330 328 327 325 324 325 325 324 325 327 330 336 337 334 329 326 324 323 325 329 327 325 323 321 321 322 322 323 323 323 322 320 319 317 315 313 308 304 301 298 296 297 296 294 294 295 297 297
63 70 142 290 306 290 322 360 354 318 340 114 145 18 354 343 338 332 320 319 329 328 322 322 321 322 322 321 321 322 319 318 317 315 314 318 325 328 328 326 326 324 324 325 324 324 326 330 334 335 333 330 327 325 323 326 331 330 325 323 323 322 321 321 321 323 323 321 320 318 317 315 314 312 310 307 303 301 301 301 298 296 296 296 296 295
90 104 336 332 37 350 316 308 263 273 292 106 124 358 359 345 339 331 312 310 318 325 328 326 323 323 325 323 323 324 322 319 316 314 318 321 325 327 325 323 323 323 323 323 323 324 327 330 333 332 328 325 325 324 326 331 332 327 322 322 324 322 322 322 322 323 323 320 318 318 318 317 313 310 310 309 305 304 303 301 298 297 295 294 293 292
65 61 357 334 13 36 292 294 296 298 307 106 73 356 354 328 319 317 303 297 313 342 335 331 327 325 325 324 324 325 324 319 314 316 321 322 323 324 322 321 322 323 323 324 324 325 327 329 330 329 326 324 324 324 328 331 328 324 322 323 323 322 322 322 322 323 322 319 318 319 319 316 313 309 307 305 305 305 302 300 299 296 294 293 291 291
60 50 46 15 348 320 301 309 317 305 304 75 350 334 338 329 322 316 296 285 337 344 335 331 327 324 323 323 323 325 325 318 312 316 320 319 320 322 321 320 321 321 322 324 325 326 328 329 328 327 326 324 324 325 328 328 326 324 323 322 321 321 320 320 321 321 319 317 318 319 317 314 312 311 308 303 298 295 295 297 298 296 294 293 292 291
57 18 357 15 339 301 296 292 266 253 265 19 338 332 340 335 323 314 296 307 336 335 331 328 324 321 321 321 322 323 322 316 312 314 315 316 317 320 321 320 320 321 322 324 326 328 329 328 327 327 326 325 324 326 327 326 325 324 322 320 320 320 319 319 319 317 316 316 318 317 315 313 312 313 312 306 297 291 293 297 298 296 294 290 288 287
69 342 341 343 315 299 285 285 278 253 253 322 331 341 345 333 322 321 318 321 326 326 324 323 320 317 318 320 320 319 315 311 310 311 313 314 317 320 321 320 320 321 322 323 326 329 329 327 326 326 325 325 325 326 326 326 324 322 321 320 319 318 318 318 317 316 315 316 317 316 314 312 312 312 312 308 301 296 295 295 293 292 290 286 285 285
17 284 247 276 306 303 263 290 300 258 177 4 344 345 352 343 330 325 318 317 321 321 319 319 317 315 317 318 317 314 312 311 312 312 313 316 319 320 320 321 322 323 323 324 326 329 329 327 326 326 325 326 327 326 326 326 323 322 321 319 317 317 317 318 317 317 317 316 316 315 313 311 311 311 309 306 302 298 295 292 289 288 287 286 287 287
39 322 303 276 297 300 260 284 315 297 36 26 356 340 349 347 322 313 315 317 319 318 317 318 316 316 317 317 315 314 313 313 314 315 315 317 320 320 320 321 322 323 324 325 327 330 329 326 325 326 326 327 327 327 326 325 322 321 320 318 317 318 318 318 318 317 316 316 315 315 313 311 310 311 309 305 302 300 296 291 289 290 290 289 289 294
161 217 315 285 181 333 294 240 290 299 321 0 352 324 322 324 316 314 317 316 317 319 319 318 315 316 318 318 317 317 315 314 315 317 318 318 320 321 321 322 322 322 323 325 326 329 329 326 325 325 326 328 328 326 325 324 322 321 319 317 318 320 320 319 318 316 316 317 316 314 313 311 310 311 311 309 307 307 302 295 294 296 295 293 294 311
171 205 283 274 203 226 265 262 275 293 306 325 324 312 313 314 315 318 316 312 315 320 320 318 317 319 322 322 320 319 317 317 318 319 319 320 320 321 321 321 322 323 324 325 326 327 327 326 325 325 326 327 328 326 325 324 322 320 318 318 319 321 321 320 318 316 317 317 315 313 311 310 310 311 312 313 313 312 308 304 303 301 299 302 313 318
195 188 194 265 266 266 257 256 273 294 305 311 311 308 312 315 320 323 318 316 318 319 319 320 320 323 326 326 323 321 321 321 321 321 321 321 321 321 321 321 322 323 324 325 326 328 327 326 326 326 326 328 328 327 326 325 323 320 318 319 320 320 320 320 318 317 317 316 314 313 311 310 311 312 313 314 316 314 310 308 306 304 306 317 323 310
188 179 214 258 284 306 290 271 291 310 314 313 314 319 325 327 329 330 325 321 321 319 319 321 324 328 330 328 325 324 323 323 324 324 324 323 322 322 322 322 323 324 325 325 326 327 327 327 328 328 328 328 329 328 326 325 323 321 320 321 321 320 319 318 318 319 318 315 314 314 312 311 311 312 312 313 315 314 311 309 308 307 312 325 320 309
133 168 241 267 266 269 276 286 306 312 303 294 301 320 332 332 330 330 327 323 321 321 323 326 330 332 330 325 325 326 324 324 326 326 325 324 322 322 322 323 324 325 325 325 326 326 326 326 328 328 328 328 328 328 327 325 323 323 323 322 322 322 320 320 320 319 316 314 314 314 312 311 312 312 311 311 312 312 310 310 310 310 318 332 321 308
129 177 242 279 275 265 276 302 324 323 306 294 312 326 330 330 329 326 324 323 322 323 326 329 330 329 326 323 324 327 326 324 326 326 324 322 321 322 322 323 324 324 324 325 326 327 326 326 328 329 327 327 328 327 327 325 324 324 324 323 323 324 323 322 320 318 315 315 316 314 312 312 313 312 310 309 310 309 306 308 308 306 322 338 328 315
218 251 268 288 284 285 308 330 335 327 314 315 324 326 326 326 324 321 320 321 321 323 327 328 325 324 324 323 324 327 327 324 325 326 323 320 320 322 323 324 324 323 323 325 326 326 326 327 329 328 327 327 328 327 327 326 325 324 324 325 326 326 324 321 319 317 316 317 317 315 315 314 313 311 309 307 308 307 307 309 308 304 328 342 336 329
236 264 276 283 278 287 306 321 326 314 301 305 314 318 318 318 318 318 317 317 320 325 328 325 321 322 323 323 324 327 327 324 324 325 322 320 321 323 324 324 324 323 324 326 327 327 328 329 328 328 327 328 328 328 327 326 324 324 325 326 326 325 321 319 318 316 316 317 315 313 313 312 309 308 307 305 306 306 306 309 310 309 332 345 343 340